Temp
86 86 85 84 85 84 83 83 83 83 83 81 80 80 80 79 79 78 77 77 76 75 75 74 74 74 72 72 73 72 69 68 64 66 67 67 67 68 69 68 69 69 70
87 86 85 86 85 85 84 84 85 82 82 81 81 79 79 79 78 77 76 76 75 74 73 74 73 73 72 72 71 69 68 68 66 64 63 64 65 68 66 65 65 70 69
87 86 86 85 84 84 84 83 83 82 81 82 80 79 78 77 77 76 75 75 74 74 73 73 72 72 71 70 70 68 68 67 67 63 61 63 64 65 64 64 64 64 70
88 87 85 85 85 85 85 85 83 82 81 80 79 78 76 75 76 76 75 75 75 74 74 72 72 70 69 69 68 67 66 66 66 63 61 61 62 61 63 61 60 62 63
86 87 86 86 87 86 84 83 82 81 80 80 78 75 73 72 74 72 73 72 71 73 74 73 71 70 70 68 67 66 64 63 63 62 61 61 60 59 59 61 61 62 63
89 87 86 85 85 84 83 80 80 80 78 76 73 72 73 74 71 68 72 73 74 72 69 69 68 68 68 68 68 68 67 64 64 62 62 61 61 60 61 61 63 62 61
87 86 85 84 83 82 80 80 79 79 77 74 71 72 73 73 67 66 68 73 73 71 69 67 69 71 68 68 69 68 68 68 69 66 64 65 63 65 66 64 64 66 67
87 86 85 84 82 81 80 79 79 77 76 73 72 71 72 72 64 63 66 72 72 72 71 72 70 70 69 70 69 69 69 69 69 70 68 68 68 69 70 69 68 66 68
82 81 81 84 82 81 79 77 75 74 75 74 73 70 70 71 62 62 64 70 69 71 72 71 72 69 65 66 70 69 68 69 65 66 68 68 68 68 71 67 65 66 65
83 83 82 81 81 79 76 74 71 70 73 75 72 72 70 71 61 59 63 72 69 67 67 66 65 66 63 63 67 67 67 68 70 70 68 66 66 69 68 72 71 68 66
82 82 81 81 79 79 77 74 73 72 72 73 72 71 71 70 69 59 59 71 69 66 65 65 66 61 58 58 60 68 67 69 70 70 69 69 70 70 72 72 72 71 68
79 79 78 78 78 77 75 74 71 67 67 71 70 70 70 71 62 58 58 61 65 65 64 65 65 59 57 56 59 63 61 66 70 70 70 70 71 71 72 73 72 72 70
77 76 76 77 77 75 73 71 70 67 70 71 71 72 72 72 70 58 56 58 59 67 67 65 62 56 55 57 59 62 61 68 66 69 70 71 73 74 72 71 72 72 71
75 75 74 72 72 71 71 72 72 73 70 72 70 69 73 69 69 65 61 60 60 62 64 65 63 61 62 65 63 63 70 70 70 70 70 71 74 73 72 73 70 69 67
75 74 73 70 69 68 68 68 69 75 72 73 69 68 69 69 70 64 63 63 64 62 64 66 64 64 64 67 68 69 70 72 70 71 71 71 70 71 72 73 72 70 68
71 72 71 69 70 68 66 65 64 62 59 56 57 59 72 65 54 54 53 53 54 54 63 64 64 66 67 67 69 68 70 70 71 72 70 70 70 70 70 72 71 71 69
70 71 68 68 69 66 65 65 66 64 55 52 54 54 56 58 52 51 49 50 50 54 64 64 64 66 68 67 67 68 69 71 71 72 72 70 70 70 70 69 71 71 69
72 65 69 68 67 66 68 69 67 66 67 65 54 57 51 51 50 48 48 52 57 56 66 66 65 66 66 68 70 72 72 73 72 72 72 72 72 70 69 69 70 69 70
74 70 69 72 70 66 68 65 68 67 67 65 64 54 52 47 47 46 48 68 67 67 69 70 70 70 70 70 73 73 72 71 71 71 72 71 70 71 69 71 72 63 64
73 68 65 72 70 69 71 68 66 68 70 67 64 65 63 57 61 61 62 68 72 72 72 72 73 74 74 73 72 73 72 71 70 70 70 69 68 69 71 71 72 71 70
74 70 65 69 69 67 68 68 68 67 68 65 68 63 56 62 67 69 67 69 71 73 75 76 77 75 73 73 72 73 74 74 72 72 71 72 72 71 71 71 72 73 73
72 68 68 66 66 63 64 65 67 65 68 67 68 63 53 61 66 73 72 72 73 74 76 74 75 75 76 76 74 76 73 73 73 70 73 71 72 71 72 69 69 66 70
69 68 67 65 64 62 66 67 67 65 66 68 68 67 66 64 64 62 63 74 75 75 75 76 77 78 78 76 76 74 78 75 75 76 74 73 68 66 68 68 68 70 70
70 66 63 61 62 64 62 62 62 58 61 64 65 66 64 64 63 63 63 64 66 68 68 70 72 68 66 62 61 55 53 50 62 67 68 65 66 61 63 62 63 65 67
61 58 56 54 54 54 56 61 60 60 58 59 61 62 63 64 62 62 62 63 63 64 62 61 62 59 58 55 55 54 41 35 46 46 64 64 64 66 62 64 66 68 71
60 55 53 51 50 50 50 50 51 51 53 53 54 52 53 52 53 52 53 54 57 56 54 53 55 54 52 50 47 40 36 35 43 39 56 62 62 63 63 65 65 67 67
MSLP
1005.76 1005.95 1006.25 1006.59 1006.78 1006.98 1007.12 1007.20 1007.21 1007.26 1007.26 1007.30 1007.34 1007.35 1007.19 1007.18 1007.12 1007.10 1007.37 1007.51 1007.42 1007.57 1007.59 1007.60 1007.65 1007.90 1008.34 1008.80 1009.27 1009.75 1010.41 1011.21 1011.55 1011.61 1011.68 1011.83 1012.13 1012.26 1012.65 1013.17 1013.77 1014.56 1015.30
1005.55 1005.75 1005.91 1006.09 1006.32 1006.42 1006.60 1006.66 1006.68 1006.84 1006.94 1006.90 1006.83 1006.82 1006.76 1006.65 1006.60 1006.68 1006.80 1007.02 1007.12 1007.11 1007.03 1007.16 1007.16 1007.70 1008.13 1008.57 1008.96 1009.36 1010.01 1010.57 1010.96 1011.11 1011.32 1011.50 1011.65 1012.07 1012.62 1013.55 1014.04 1014.57 1015.36
1005.11 1005.48 1005.60 1005.66 1005.75 1005.82 1005.93 1005.97 1006.01 1006.21 1006.36 1006.25 1006.31 1006.27 1006.31 1006.33 1006.22 1006.24 1006.34 1006.41 1006.53 1006.56 1006.77 1007.08 1007.28 1007.62 1007.93 1008.31 1008.69 1009.16 1009.51 1009.79 1010.06 1010.32 1010.91 1011.34 1011.66 1012.18 1012.99 1013.77 1014.25 1014.84 1015.10
1004.29 1004.84 1004.95 1004.97 1004.96 1004.99 1005.04 1005.22 1005.43 1005.66 1005.67 1005.61 1005.72 1005.93 1006.22 1006.26 1006.09 1005.98 1005.95 1006.03 1006.16 1006.46 1006.73 1007.03 1007.28 1007.60 1007.86 1008.04 1008.31 1008.69 1008.91 1009.10 1009.24 1009.88 1010.59 1010.98 1011.65 1012.49 1012.91 1013.73 1014.65 1015.04 1015.24
1003.32 1003.87 1004.12 1004.22 1004.10 1004.25 1004.44 1004.61 1004.93 1005.04 1005.16 1005.06 1005.27 1005.71 1006.12 1006.27 1006.08 1006.00 1005.96 1006.02 1006.10 1006.24 1006.46 1006.81 1007.07 1007.29 1007.51 1007.72 1007.95 1008.30 1008.76 1008.92 1008.83 1009.09 1009.71 1010.60 1011.68 1012.56 1013.09 1013.73 1014.24 1014.72 1014.84
1002.37 1003.06 1003.43 1003.66 1003.80 1003.89 1003.81 1004.16 1004.08 1004.28 1004.63 1004.83 1005.00 1005.33 1005.39 1005.51 1005.49 1005.64 1005.68 1005.63 1005.79 1006.12 1006.59 1006.96 1007.16 1007.28 1007.50 1007.83 1008.06 1008.04 1008.30 1008.64 1008.97 1009.29 1009.72 1010.51 1011.18 1012.12 1012.72 1013.39 1014.00 1014.51 1014.71
1001.79 1002.47 1002.82 1003.04 1003.07 1003.06 1003.65 1003.15 1003.67 1003.66 1004.04 1004.18 1004.58 1004.82 1004.73 1004.77 1004.93 1005.18 1005.48 1005.47 1005.80 1006.02 1006.34 1006.66 1006.74 1007.18 1007.64 1007.76 1007.74 1007.75 1007.92 1008.26 1008.45 1008.84 1009.37 1009.95 1010.93 1011.24 1011.95 1012.74 1013.23 1013.58 1013.13
1002.03 1002.12 1002.24 1002.14 1002.28 1002.15 1002.71 1002.77 1002.90 1003.28 1003.78 1003.86 1003.61 1003.97 1004.17 1004.28 1004.45 1004.71 1005.20 1005.47 1005.53 1005.85 1005.94 1006.15 1006.47 1006.80 1007.25 1007.34 1007.64 1007.73 1008.05 1008.29 1008.53 1008.60 1009.00 1009.37 1010.03 1010.57 1010.84 1011.36 1012.10 1012.62 1012.81
1002.24 1002.45 1002.34 1002.12 1002.02 1001.93 1001.83 1002.32 1002.06 1003.32 1003.20 1003.73 1003.24 1003.05 1003.21 1003.51 1003.84 1004.16 1004.77 1005.14 1005.34 1005.60 1005.83 1006.10 1006.22 1006.68 1006.98 1007.17 1007.42 1007.57 1007.89 1008.22 1008.33 1008.21 1008.41 1008.59 1008.98 1009.61 1010.03 1011.11 1011.86 1012.44 1012.60
1002.62 1002.45 1002.34 1002.13 1001.91 1001.61 1001.24 1001.86 1002.55 1002.13 1003.21 1003.30 1002.79 1002.31 1002.34 1002.57 1003.16 1003.70 1004.21 1004.28 1004.95 1005.36 1005.84 1006.22 1006.39 1006.70 1006.88 1007.14 1007.35 1007.35 1007.64 1007.84 1007.97 1008.19 1008.42 1008.53 1008.93 1009.42 1009.80 1010.41 1010.93 1011.43 1011.74
1002.79 1002.54 1002.24 1001.99 1001.68 1001.18 1000.69 1000.77 1001.73 1002.11 1001.03 1001.88 1001.93 1001.71 1001.67 1001.74 1002.28 1003.29 1003.85 1003.75 1004.31 1004.90 1005.52 1005.98 1006.24 1006.55 1006.74 1006.96 1007.18 1007.19 1007.27 1007.41 1007.72 1007.99 1008.35 1008.57 1008.89 1009.24 1009.71 1010.05 1010.22 1010.51 1011.05
1002.98 1002.60 1002.21 1001.84 1001.40 1001.01 1000.59 1000.32 1000.63 1001.37 1002.02 1001.82 1001.59 1001.49 1000.96 1000.95 1001.72 1002.62 1002.30 1003.61 1003.91 1004.39 1004.91 1005.28 1005.43 1005.83 1006.33 1006.60 1006.99 1007.16 1007.35 1007.35 1007.71 1007.83 1008.14 1008.45 1008.75 1009.04 1009.24 1009.55 1009.79 1010.09 1010.74
1002.72 1002.36 1001.91 1001.45 1001.04 1000.60 1000.36 1000.15 1000.39 1000.62 1000.69 1000.68 1000.91 1000.51 1000.26 1000.39 1000.91 1001.83 1002.61 1003.19 1003.70 1003.94 1004.27 1004.61 1005.09 1005.32 1005.90 1006.27 1006.76 1006.90 1007.07 1007.22 1007.33 1007.53 1007.66 1007.84 1008.04 1008.28 1008.66 1009.14 1009.47 1009.77 1010.19
1002.52 1002.07 1001.65 1001.32 1000.90 1000.46 1000.01 999.79 999.65 999.77 999.71 999.76 999.83 1000.04 999.53 999.77 1000.67 1001.53 1002.39 1002.84 1003.34 1003.85 1003.99 1004.49 1004.85 1005.31 1005.64 1005.69 1006.30 1006.77 1006.73 1006.67 1006.89 1006.96 1006.98 1006.95 1007.42 1007.84 1008.30 1008.62 1009.18 1009.51 1010.00
1002.12 1001.66 1001.36 1000.96 1000.49 999.85 999.32 999.05 999.17 998.87 998.56 998.82 999.12 999.32 999.13 999.19 999.91 1000.60 1001.33 1002.05 1002.60 1003.28 1003.68 1004.15 1004.57 1005.06 1005.31 1005.42 1005.63 1006.03 1006.23 1006.17 1006.12 1006.22 1006.27 1006.41 1006.62 1006.92 1007.43 1007.78 1008.45 1009.09 1009.63
1001.84 1001.36 1000.86 1000.42 999.80 999.21 998.78 998.42 998.29 998.36 998.15 998.57 998.69 999.20 998.40 997.89 999.25 1000.09 1000.84 1001.44 1002.17 1002.89 1003.38 1003.43 1003.80 1004.03 1004.22 1004.47 1004.74 1005.20 1005.49 1005.63 1005.62 1005.79 1005.90 1006.06 1006.21 1006.41 1006.72 1007.10 1007.63 1008.38 1008.93
1001.35 1000.87 1000.19 999.76 999.06 998.54 998.06 998.12 998.45 998.65 998.80 998.84 998.74 998.78 998.44 998.77 999.27 999.92 1000.68 1001.35 1001.94 1002.64 1002.74 1002.98 1003.18 1003.30 1003.37 1003.68 1004.10 1004.50 1004.73 1004.86 1004.79 1005.10 1005.45 1005.63 1005.83 1006.07 1006.26 1006.43 1006.79 1007.26 1007.87
1000.78 999.97 999.62 999.19 998.47 997.95 997.73 997.94 998.09 998.37 998.60 998.65 999.07 998.76 998.72 999.44 999.54 999.92 1000.61 1001.50 1002.48 1002.41 1002.20 1002.22 1002.46 1002.62 1002.80 1003.07 1003.34 1003.47 1003.71 1004.07 1004.24 1004.51 1004.83 1005.11 1005.33 1005.65 1005.93 1006.15 1006.17 1006.47 1006.86
1000.33 999.93 999.25 998.71 998.05 997.57 997.08 997.18 997.04 997.27 997.84 997.77 997.46 999.00 999.39 999.81 1000.18 1000.28 1000.18 1000.51 1000.97 1001.25 1001.29 1001.28 1001.53 1001.79 1002.08 1002.29 1002.41 1002.63 1002.71 1002.64 1003.21 1003.85 1004.25 1004.48 1004.80 1005.08 1005.33 1005.45 1005.57 1005.72 1006.12
1000.11 999.39 998.89 998.26 997.70 997.23 996.71 996.63 996.57 996.68 996.89 997.04 997.36 997.85 999.30 1000.32 1000.91 1000.63 1000.16 999.79 999.71 999.99 1000.11 1000.35 1000.53 1000.63 1000.74 1000.98 1001.09 1001.37 1001.77 1002.18 1002.69 1003.22 1003.66 1004.03 1004.25 1004.48 1004.77 1004.98 1005.07 1004.98 1005.20
1000.02 999.34 998.71 998.05 997.62 997.45 997.13 996.79 996.59 996.48 996.51 996.45 996.72 997.64 998.01 998.28 999.14 999.40 999.36 998.93 998.78 998.71 998.86 998.97 999.35 999.68 1000.01 1000.11 1000.36 1000.60 1001.14 1001.69 1002.18 1002.58 1002.92 1003.28 1003.66 1003.97 1004.07 1004.33 1004.43 1004.37 1004.35
1000.03 999.53 998.93 998.34 998.28 997.93 997.68 997.15 996.79 996.77 996.72 996.69 996.70 997.73 997.80 998.30 997.82 997.86 997.63 997.61 997.73 998.00 998.05 998.30 998.41 998.60 998.91 999.26 999.65 1000.27 1000.66 1001.10 1001.41 1001.71 1002.27 1002.55 1003.00 1003.32 1003.55 1003.77 1003.78 1003.95 1003.98
1000.36 999.89 999.65 999.30 998.77 998.39 998.05 997.54 997.44 997.31 997.26 997.04 996.95 996.84 997.39 997.66 997.58 997.72 997.74 996.72 996.48 996.93 997.42 997.72 997.80 997.96 998.09 998.38 998.63 999.01 999.31 1000.12 1000.34 1000.53 1001.03 1001.43 1001.71 1002.21 1002.47 1003.35 1004.01 1004.16 1003.72
1001.48 1001.35 1001.12 1000.66 999.93 999.21 998.95 998.61 998.27 998.25 998.08 997.79 997.43 997.18 997.04 997.02 997.13 997.28 997.47 997.30 997.67 996.98 997.32 997.34 997.63 998.58 999.03 999.76 1000.18 1000.60 1000.66 1000.76 1000.94 1000.45 1000.31 1000.74 1001.52 1001.50 1002.00 1003.39 1003.29 1002.96 1002.54
1003.18 1002.99 1002.65 1002.14 1001.57 1001.10 1000.45 999.71 999.66 999.65 999.43 998.84 998.38 997.66 997.36 997.24 997.42 997.44 997.18 997.35 998.08 997.78 998.38 998.89 998.93 999.52 999.58 999.61 1000.42 1001.10 1001.40 1000.62 1001.36 1001.24 1000.23 1000.12 1001.23 1001.42 1001.03 1001.72 1002.57 1002.05 1001.53
1004.02 1004.04 1003.83 1003.51 1003.12 1002.81 1002.44 1002.04 1001.66 1001.34 1000.97 1000.64 1000.34 999.96 999.51 999.10 999.07 998.98 999.03 998.95 998.91 999.05 999.84 999.93 999.77 999.98 999.52 1000.16 1001.35 1002.11 1000.91 1000.24 1000.84 1001.54 1000.71 1000.59 1000.63 1000.51 1000.87 1001.16 1001.15 1001.09 1001.15
Wind_Speed
6 7 7 8 7 7 6 7 7 8 6 6 7 8 8 9 10 9 11 12 13 11 11 13 14 11 6 4 3 3 5 6 9 6 2 2 3 9 5 6 11 8 7
7 7 7 7 7 6 6 6 5 4 6 7 8 9 10 10 10 9 9 9 11 11 10 11 11 5 8 7 5 7 7 8 8 10 2 2 4 8 9 10 8 7 6
8 7 7 7 7 8 8 8 6 6 8 8 8 9 7 7 6 7 8 8 8 8 6 5 7 7 7 6 7 7 8 6 9 4 3 2 2 5 9 7 7 5 4
10 9 9 10 9 8 7 5 5 7 8 7 7 6 6 7 7 5 5 5 4 4 4 5 5 6 7 6 6 6 5 7 9 6 4 3 3 3 8 9 6 2 3
10 9 7 6 6 6 6 6 6 6 7 5 5 5 8 7 7 6 5 6 6 6 3 2 2 3 3 2 2 4 4 3 2 8 5 5 6 8 10 6 6 6 6
6 6 6 8 7 7 8 8 8 9 7 6 6 9 9 8 8 8 8 7 4 4 4 4 4 4 5 5 3 8 9 8 7 5 5 8 9 9 6 8 6 6 5
6 6 7 8 10 10 9 9 11 8 8 8 7 9 10 9 7 9 7 3 5 5 6 7 6 5 6 5 6 10 12 11 11 7 10 10 10 12 12 12 10 10 7
5 5 7 9 10 9 10 10 9 7 7 9 8 9 9 9 12 12 11 7 5 4 5 5 5 6 7 7 5 5 6 8 8 6 10 10 10 13 13 11 10 4 3
8 8 10 10 10 9 12 14 13 13 9 8 7 9 11 11 13 15 12 8 5 7 5 3 4 4 6 5 6 6 6 5 4 6 12 12 12 15 11 7 6 6 5
9 9 9 10 11 11 12 11 1 13 18 8 9 10 11 10 13 14 13 7 8 5 4 4 5 3 4 7 4 5 6 6 6 5 4 4 10 12 15 11 8 8 4
11 11 11 11 13 13 12 9 8 13 7 8 8 8 10 9 10 15 17 8 7 7 6 5 5 10 9 10 8 5 6 6 5 6 4 5 5 7 7 6 4 4 3
12 13 14 14 12 12 13 12 6 4 9 12 9 8 7 8 9 17 18 13 11 8 8 6 5 10 10 9 6 4 8 8 4 5 5 6 6 7 5 6 6 4 4
12 13 14 14 14 13 12 11 4 7 10 9 9 8 6 6 5 14 15 15 7 8 6 7 9 10 10 7 7 8 8 5 5 6 7 6 7 8 8 5 6 6 6
14 15 14 13 15 13 9 8 7 7 8 9 7 8 7 6 6 6 6 8 12 7 7 5 6 8 9 7 7 4 5 6 7 7 5 6 10 9 8 8 6 4 4
14 12 13 12 13 12 10 8 7 10 8 8 6 9 7 6 7 10 10 8 8 9 7 6 5 7 7 8 8 8 7 7 6 5 3 3 4 5 7 8 9 7 6
13 11 11 11 10 10 6 4 14 19 9 5 9 3 1 3 16 17 15 14 12 14 7 7 8 9 9 9 9 8 9 9 7 6 4 3 4 4 5 6 6 10 9
12 14 11 11 11 8 5 6 8 4 3 5 6 7 3 6 16 17 14 12 14 14 8 7 7 8 8 8 8 9 10 10 12 9 8 6 5 4 3 4 6 8 7
14 15 10 7 9 7 7 6 6 10 8 5 7 6 8 11 14 16 15 12 4 3 7 8 8 8 9 9 10 10 11 12 10 9 9 8 7 6 4 4 5 5 8
12 10 10 9 8 9 8 4 8 9 7 4 3 3 6 8 8 12 19 9 10 10 8 9 9 9 8 9 10 10 10 4 7 10 9 5 4 5 5 5 7 8 8
11 16 11 8 8 8 8 6 4 4 2 4 5 7 7 6 7 8 9 9 9 10 10 10 9 8 9 8 6 5 6 5 5 4 3 4 4 4 6 7 8 6 7
12 12 12 8 8 9 8 6 4 3 3 3 3 5 11 10 10 11 10 10 9 8 9 9 10 9 7 4 4 4 7 8 7 8 7 9 9 8 9 9 10 8 8
11 10 9 8 5 6 9 7 5 4 4 5 5 4 8 11 9 11 12 12 11 10 8 7 5 8 10 10 8 7 5 7 8 6 8 7 10 10 9 10 10 8 6
10 13 11 10 5 4 7 8 5 5 6 6 6 5 1 4 5 3 7 9 12 11 10 9 8 7 4 8 10 9 11 10 10 10 11 11 9 8 8 8 10 12 12
14 13 12 11 12 8 6 7 7 7 5 6 7 6 4 3 2 3 4 8 11 6 5 1 2 7 7 7 8 7 6 5 6 3 3 4 8 4 3 5 8 20 11
12 11 11 10 11 10 12 11 10 10 9 11 11 6 5 3 1 4 5 5 6 6 12 9 7 10 11 15 10 10 4 10 7 14 4 4 4 9 10 14 18 16 9
12 12 9 9 9 10 9 9 9 10 10 10 10 10 10 10 9 9 9 10 8 10 9 7 9 12 15 15 10 7 7 12 8 13 5 3 3 5 4 5 7 5 4
Wind_Direction
195 180 187 191 196 206 222 233 240 250 257 282 285 284 271 270 265 255 244 245 246 240 237 239 244 237 239 246 231 215 208 205 236 236 167 135 139 145 129 125 137 142 153
190 187 190 197 206 218 225 241 244 271 279 281 269 263 268 268 259 270 257 246 250 253 248 236 244 240 237 225 219 238 231 225 224 224 154 156 134 162 144 143 140 140 163
182 197 210 214 212 220 228 228 230 233 249 259 273 270 278 284 282 259 253 254 249 250 256 244 244 240 243 234 222 221 215 208 208 157 134 142 96 142 132 120 132 127 193
180 207 216 214 218 226 224 224 234 247 247 253 253 268 300 290 278 281 228 233 253 261 254 252 256 254 254 254 242 215 234 229 204 157 130 129 111 103 132 138 141 170 248
182 204 226 230 225 232 229 225 240 249 262 270 266 256 258 254 250 234 236 224 225 234 233 272 219 172 184 192 201 164 156 105 150 127 131 137 128 146 152 161 165 174 214
190 214 223 229 230 235 226 230 229 229 235 236 237 241 239 239 251 240 231 240 174 176 193 162 147 127 158 148 188 218 168 165 147 147 144 151 151 162 160 157 169 174 199
173 209 222 232 234 236 250 227 240 233 217 208 220 239 238 229 212 177 175 195 200 199 192 182 174 178 174 169 193 186 178 172 162 163 158 164 169 167 164 169 184 203 192
305 276 247 239 241 231 243 239 239 232 230 217 214 224 236 242 184 175 176 206 196 208 183 162 178 154 192 177 171 156 165 170 196 195 170 170 175 177 176 176 182 178 245
315 291 289 283 269 261 249 257 254 291 245 229 224 223 230 240 200 186 175 197 200 190 158 140 128 161 159 172 177 182 171 142 110 162 186 180 173 173 169 149 175 189 202
308 311 310 308 294 272 262 264 202 222 258 232 229 226 233 236 196 184 190 190 181 179 159 168 172 146 201 231 216 184 162 164 150 127 119 149 168 175 165 173 183 188 189
312 312 302 300 292 276 275 270 223 247 238 234 235 230 235 232 227 193 198 193 181 173 170 180 182 195 202 221 228 209 193 175 170 147 139 136 135 151 172 196 190 186 180
317 308 305 298 290 291 278 282 291 75 309 270 247 243 228 230 218 179 193 213 170 175 183 188 174 190 204 202 185 211 183 166 186 168 164 164 167 169 186 183 201 164 130
304 301 296 297 296 286 284 281 204 202 228 245 244 235 235 196 168 179 181 203 197 187 177 175 167 175 188 171 189 188 184 193 189 198 188 181 184 181 182 180 178 177 143
306 304 305 307 304 298 280 263 246 230 230 235 227 244 228 171 172 162 184 197 205 201 157 169 168 181 189 169 156 193 215 208 192 212 223 184 186 193 180 182 181 184 166
305 307 306 302 297 288 286 266 258 245 242 255 236 238 221 190 174 174 172 179 185 196 176 184 174 182 187 192 187 188 206 228 222 231 217 199 191 175 174 174 181 186 189
300 303 301 296 293 290 274 263 249 256 257 246 175 195 3 163 147 166 172 167 165 160 185 185 187 195 191 194 191 192 199 208 214 223 223 230 207 192 179 177 176 188 195
304 302 296 295 301 291 235 262 286 266 302 169 194 158 110 172 157 155 160 163 164 159 194 199 202 199 196 192 200 193 205 216 205 199 209 219 210 215 217 194 188 194 206
305 287 305 309 304 290 284 277 271 301 266 210 196 200 145 153 154 153 149 129 128 224 200 198 206 197 205 198 210 211 205 207 202 204 207 207 200 202 217 229 212 189 193
324 313 308 307 303 302 287 221 251 204 227 209 171 194 153 144 154 153 157 174 183 194 212 210 202 205 209 220 218 215 211 193 169 193 203 196 192 188 214 229 219 212 180
315 298 278 299 299 295 295 296 314 347 214 207 212 218 157 143 186 187 190 197 200 198 205 210 224 219 211 219 207 187 180 158 152 159 167 170 187 196 221 227 236 233 207
321 329 324 317 324 344 336 321 311 279 274 310 318 122 166 206 202 194 192 200 214 224 224 208 199 215 235 239 217 186 184 195 196 204 198 205 211 219 215 227 235 244 226
317 327 340 349 24 2 326 313 318 335 334 334 337 139 176 189 237 203 195 195 201 222 235 241 246 200 208 213 213 214 194 194 205 190 217 202 212 219 223 224 230 224 241
355 356 4 355 351 314 321 339 351 354 358 341 325 319 170 197 231 35 355 230 197 203 211 226 241 243 264 201 204 204 214 214 214 207 210 216 193 194 200 226 243 240 234
3 9 1 356 0 3 18 13 5 353 331 317 305 330 310 242 209 80 30 26 348 39 29 17 56 59 48 63 45 45 49 24 348 19 119 150 248 158 139 251 267 272 250
13 10 6 2 5 6 1 23 26 24 16 14 356 327 328 360 131 87 67 49 0 44 64 50 51 55 67 56 37 49 86 63 35 309 248 136 232 240 200 229 230 223 250
24 19 14 13 14 12 13 12 18 9 13 12 16 17 24 32 32 37 36 44 49 63 64 54 67 60 57 55 38 348 12 48 59 301 313 286 213 274 297 310 316 304 292